Simultaneous Nadir Overpasses (SNOs) Predictions

Prediction of SNOs between NOAA-19 and NPP Satellite Orbit:

Table of predicted SNOs for the next 14.0 days since TLE Epoch: 2/9/2018
Index Date (NOAA-19) Time (NOAA-19) Lat,Lon (NOAA-19) SZA (NOAA-19 ) Date (NPP) Time (NPP) Lat,Lon (NPP) SZA (NPP ) Distance(km) Time Diff (sec)
1 02/21/2018 05:12:40 -80.64,-125.33 85.48 02/21/2018 05:13:40 -80.65,-125.17 85.52 2.91 60
2 02/21/2018 06:03:38 80.65, 42.05 94.51 02/21/2018 06:04:25 80.64, 42.18 94.46 2.43 47
3 02/21/2018 06:54:41 -80.65,-150.74 85.51 02/21/2018 06:55:10 -80.65,-150.60 85.54 2.49 29
4 02/21/2018 07:45:39 80.65, 16.65 94.47 02/21/2018 07:45:55 80.65, 16.76 94.45 1.93 16
5 02/21/2018 08:36:42 -80.65,-176.14 85.55 02/21/2018 08:36:40 -80.65,-176.03 85.56 2.07 2
6 02/21/2018 09:27:40 80.66, -8.75 94.43 02/21/2018 09:27:25 80.65, -8.67 94.43 1.44 15
7 02/21/2018 10:18:43 -80.65, 158.46 85.58 02/21/2018 10:18:10 -80.66, 158.55 85.57 1.65 33
8 02/21/2018 11:09:41 80.66, -34.14 94.40 02/21/2018 11:08:55 80.65, -34.10 94.41 1.01 46
9 02/21/2018 12:00:44 -80.66, 133.05 85.62 02/21/2018 11:59:40 -80.66, 133.12 85.59 1.23 64




NCC Satellite Simultaneous Nadir Overpasses (SNOs) Prediction Service
